Weather History for Toledo, OH

Change the Weather History Date:

Thursday, February 27, 2014

  Actual Average Record
Temperature  
Mean Temperature 8 °F 32 °F  
Max Temperature 16 °F 40 °F 66 °F (1996)
Min Temperature -1 °F 23 °F -10 °F (1963)
Degree Days  
Heating Degree Days 57 34  
Month to date heating degree days 1260 995  
Since 1 July heating degree days 5269 4544  
Cooling Degree Days 0 0  
Month to date cooling degree days 0 0  
Year to date cooling degree days 0 0  
Moisture  
Dew Point 2 °F    
Average Humidity 61    
Maximum Humidity 80    
Minimum Humidity 41    
Precipitation  
Precipitation T in 0.08 in 0.81 in (1997)
Month to date precipitation 3.89 1.99  
Year to date precipitation 7.18 4.04  
Snow  
Snow T in 0.20 in - ()
Month to date snowfall 21.6 9.1  
Since 1 July snowfall 73.5 30.2  
Snow Depth 4.00 in    
Sea Level Pressure  
Sea Level Pressure 29.83 in    
Wind  
Wind Speed 14 mph (WNW)    
Max Wind Speed 30 mph    
Max Gust Speed 41 mph    
Visibility 8 miles    
Events Fog , Snow    
T = Trace of Precipitation, MM = Missing Value Source: NWS Daily Summary

Daily Weather History Graph

Daily Weather History Graph

Search for Another Location

Airport:

Trip Planner

Search our weather history database for the weather conditions in past years. The results will help you decide how hot, cold, wet, or windy it might be!

Date:

Astronomy

Feb. 27, 2014 Rise Set
Actual Time 7:13 AM EST 6:23 PM EST
Civil Twilight 6:45 AM EST 6:51 PM EST
Nautical Twilight 6:13 AM EST 7:23 PM EST
Astronomical Twilight 5:40 AM EST 7:55 PM EST
Moon 5:45 AM EST (2/27) 4:47 PM EST (2/27)
Length of Visible Light 12h 06m
Length of Day
11h 10m
Waning Crescent, 4% of the Moon is Illuminated
Feb 27
Waning Crescent
Mar 1
New
Mar 8
First Quarter
Mar 16
Full
Mar 23
Last Quarter

Hourly Weather History & Observations

Time (EST) Temp. Windchill Dew Point Humidity Pressure Visibility Wind Dir Wind Speed Gust Speed Precip Events Conditions
12:52 AM 12.9 °F -3.9 °F 3.9 °F 67% 29.69 in 10.0 mi SW 17.3 mph 23.0 mph N/A   Clear
1:52 AM 14.0 °F -0.2 °F 3.9 °F 64% 29.65 in 10.0 mi SW 12.7 mph 26.5 mph N/A   Clear
2:52 AM 15.1 °F -1.6 °F 3.9 °F 61% 29.62 in 10.0 mi WSW 18.4 mph 25.3 mph N/A   Mostly Cloudy
3:52 AM 15.1 °F -2.0 °F 3.9 °F 61% 29.60 in 10.0 mi SW 19.6 mph 28.8 mph N/A   Clear
4:52 AM 15.1 °F -2.0 °F 6.1 °F 68% 29.60 in 10.0 mi WSW 19.6 mph - N/A   Scattered Clouds
5:13 AM 15.8 °F -1.9 °F 6.8 °F 68% 29.56 in 10.0 mi WSW 21.9 mph 29.9 mph N/A   Overcast
5:49 AM 15.8 °F -1.1 °F 8.6 °F 73% 29.58 in 10.0 mi West 19.6 mph - N/A   Overcast
5:52 AM 16.0 °F -0.4 °F 9.0 °F 74% 29.62 in 10.0 mi WSW 18.4 mph - N/A   Overcast
6:12 AM 15.8 °F -1.1 °F 10.4 °F 79% 29.59 in 3.0 mi West 19.6 mph 28.8 mph 0.00 in Snow Light Snow
6:18 AM 15.8 °F -2.7 °F 10.4 °F 79% 29.61 in 1.5 mi West 24.2 mph 34.5 mph 0.00 in Snow Light Snow
6:20 AM 15.8 °F -3.7 °F 10.4 °F 79% 29.61 in 0.8 mi West 27.6 mph 38.0 mph 0.00 in Snow Light Snow
6:26 AM 14.0 °F -5.1 °F 12.2 °F 93% 29.61 in 0.2 mi West 24.2 mph 38.0 mph 0.00 in Fog , Snow Heavy Snow
6:33 AM 14.0 °F -2.0 °F 12.2 °F 93% 29.61 in 0.5 mi West 16.1 mph 32.2 mph 0.00 in Fog , Snow Light Snow
6:37 AM 15.8 °F -1.1 °F 12.2 °F 86% 29.61 in 1.8 mi West 19.6 mph - 0.00 in Snow Light Snow
6:39 AM 15.8 °F -0.2 °F 10.4 °F 79% 29.61 in 3.0 mi West 17.3 mph - 0.00 in Snow Light Snow
6:52 AM 15.1 °F -0.1 °F 10.0 °F 80% 29.66 in 9.0 mi West 15.0 mph - 0.00 in   Overcast
7:12 AM 14.0 °F -4.7 °F 6.8 °F 73% 29.64 in 5.0 mi WNW 23.0 mph 33.4 mph 0.00 in   Mostly Cloudy
7:28 AM 14.0 °F -2.5 °F 6.8 °F 73% 29.66 in 4.0 mi WNW 17.3 mph 28.8 mph 0.00 in Snow Light Snow
7:47 AM 12.2 °F -4.3 °F 6.8 °F 79% 29.68 in 9.0 mi WNW 16.1 mph 28.8 mph 0.00 in   Overcast
7:52 AM 12.9 °F -2.2 °F 6.1 °F 74% 29.72 in 9.0 mi WNW 13.8 mph 28.8 mph 0.00 in   Overcast
8:52 AM 12.0 °F -8.1 °F 3.0 °F 67% 29.79 in 4.0 mi WNW 25.3 mph 34.5 mph 0.00 in   Overcast
8:59 AM 10.4 °F -9.1 °F 3.2 °F 73% 29.75 in 1.8 mi WNW 21.9 mph 34.5 mph 0.00 in Snow Light Snow
9:08 AM 10.4 °F -8.6 °F 3.2 °F 73% 29.76 in 3.0 mi WNW 20.7 mph 31.1 mph 0.00 in Snow Light Snow
9:52 AM 12.0 °F -6.9 °F -2.0 °F 53% 29.85 in 10.0 mi NW 21.9 mph 34.5 mph 0.00 in   Clear
10:25 AM 10.4 °F -10.7 °F 3.2 °F 73% 29.85 in 1.5 mi NW 26.5 mph 39.1 mph 0.00 in Snow Light Snow
10:34 AM 10.4 °F -9.9 °F 1.4 °F 67% 29.86 in 4.0 mi NW 24.2 mph 33.4 mph 0.00 in Snow Light Snow
10:52 AM 10.0 °F -9.5 °F -0.9 °F 61% 29.92 in 9.0 mi NNW 21.9 mph 33.4 mph 0.00 in   Scattered Clouds
11:52 AM 10.9 °F -7.5 °F -7.1 °F 44% 29.97 in 10.0 mi NW 19.6 mph 32.2 mph N/A   Mostly Cloudy
12:52 PM 10.9 °F -8.8 °F -5.1 °F 49% 30.01 in 10.0 mi NW 23.0 mph 28.8 mph N/A   Mostly Cloudy
1:52 PM 10.9 °F -4.7 °F -9.0 °F 40% 30.04 in 10.0 mi NW 13.8 mph 25.3 mph N/A   Mostly Cloudy
2:52 PM 10.9 °F -5.9 °F -9.0 °F 40% 30.07 in 10.0 mi NW 16.1 mph 23.0 mph N/A   Scattered Clouds
3:52 PM 10.9 °F -4.1 °F -9.0 °F 40% 30.09 in 10.0 mi West 12.7 mph 19.6 mph N/A   Partly Cloudy
4:52 PM 10.9 °F -4.1 °F -9.9 °F 39% 30.11 in 10.0 mi NW 12.7 mph - N/A   Clear
5:52 PM 10.0 °F -2.9 °F -9.0 °F 42% 30.14 in 10.0 mi NW 9.2 mph - N/A   Clear
6:52 PM 8.1 °F -2.0 °F -8.0 °F 48% 30.16 in 10.0 mi West 5.8 mph - N/A   Clear
7:52 PM 7.0 °F -1.7 °F -8.0 °F 51% 30.19 in 10.0 mi NW 4.6 mph - N/A   Clear
8:52 PM 6.1 °F -0.9 °F -8.0 °F 53% 30.21 in 10.0 mi WNW 3.5 mph - N/A   Clear
9:52 PM 6.1 °F -0.9 °F -8.0 °F 53% 30.22 in 10.0 mi NW 3.5 mph - N/A   Clear
10:52 PM 3.9 °F -3.4 °F -8.0 °F 58% 30.24 in 10.0 mi NNW 3.5 mph - N/A   Clear
11:52 PM -0.9 °F - -8.0 °F 72% 30.25 in 10.0 mi Calm Calm - N/A   Clear